Regional Weather Roundup
Issued by NWS

Home | Current Version | Previous Version | Graphics & Text | Print | Product List | Glossary On
Versions: 1 2 3 4 5 6 7 8 9 10 11 12 13 14 15 16 17 18 19 20 21 22 23 24 25 26 27 28
000
ASUS45 KPSR 241810
RWRAZ

ARIZONA HOURLY REGIONAL WEATHER ROUNDUP
NATIONAL WEATHER SERVICE PHOENIX AZ
1100 AM MST SUN JUL 24 2016

NOTE: FAIR INDICATES FEW OR NO CLOUDS BELOW 12,000 FEET WITH NO
SIGNIFICANT WEATHER AND/OR OBSTRUCTIONS TO VISIBILITY.

AZZ001>003-036-241900-
NORTHWEST ARIZONA

CITY           SKY/WX    TMP DP  RH WIND       PRES   REMARKS
BULLHEAD CITY  SUNNY    102  55  21 S18G28    29.86S HX 101
KINGMAN        SUNNY     95  51  22 SW25      30.06R
6HR MIN TEMP:  79; 6HR MAX TEMP:  96;

$$

AZZ004>008-015-016-018-241900-
NORTH CENTRAL ARIZONA

CITY           SKY/WX    TMP DP  RH WIND       PRES   REMARKS
GRAND CANYON   SUNNY     88  45  22 S12G20    30.30F
6HR MIN TEMP:  53; 6HR MAX TEMP:  88;

WILLIAMS       SUNNY     82  48  30 SW9G23    30.40S
PRESCOTT       SUNNY     86  54  33 S9        30.21S
6HR MIN TEMP:  67; 6HR MAX TEMP:  86;

FLAGSTAFF      MOSUNNY   79  50  36 SW14      30.35S
6HR MIN TEMP:  54; 6HR MAX TEMP:  79;

PAYSON         SUNNY     84  52  32 W9        30.25S
PAGE           SUNNY     96  40  14 VRB3      30.06F
6HR MIN TEMP:  78; 6HR MAX TEMP:  97;

$$

AZZ009>014-017-241900-
NORTHEAST ARIZONA

CITY           SKY/WX    TMP DP  RH WIND       PRES   REMARKS
WINSLOW        MOSUNNY   95  46  18 VRB6      30.15F
6HR MIN TEMP:  61; 6HR MAX TEMP:  95;

SAINT JOHNS    SUNNY     90  44  20 NW14      30.21S
6HR MIN TEMP:  64; 6HR MAX TEMP:  90; 6HR PCP:  0.02;

WINDOW ROCK    PTSUNNY   85  45  24 SW7       30.28F
6HR MIN TEMP:  58; 6HR MAX TEMP:  87;

SHOW LOW       MOSUNNY   79  45  29 CALM      30.31S
$$

AZZ023-241900-
GREATER PHOENIX AREA

CITY           SKY/WX    TMP DP  RH WIND       PRES   REMARKS
PHOENIX        PTSUNNY   98  59  27 W9        29.92F
6HR MIN TEMP:  90; 6HR MAX TEMP:  99;

BUCKEYE        MOSUNNY   95  59  30 SW7       29.95F
GLENDALE       PTSUNNY   99  61  28 W13       29.95F
LUKE AFB       MOSUNNY   97  60  29 SW14      29.92F
6HR MIN TEMP:  89; 6HR MAX TEMP:  97;

DEER VALLEY    MOSUNNY   96  58  27 W14       29.95F
6HR MIN TEMP:  88; 6HR MAX TEMP:  97;

SCOTTSDALE     SUNNY     96  57  27 VRB7      29.97F
6HR MIN TEMP:  88; 6HR MAX TEMP:  97;

MESA-FALCON    MOSUNNY  N/A N/A N/A MISG      29.93S
MESA-GATEWAY   MOSUNNY   95  61  31 CALM      29.97F
CHANDLER       MOSUNNY   97  59  28 NW6       29.95S
$$

AZZ027-028-241900-
SOUTHWEST MARICOPA COUNTY AND PINAL COUNTY

CITY           SKY/WX    TMP DP  RH WIND       PRES   REMARKS
CASA GRANDE    SUNNY     97  59  28 W8        29.97F
6HR MIN TEMP:  86; 6HR MAX TEMP:  99;

GILA BEND      FAIR     100  58  24 VRB3G17   29.90F HX 100
6HR MIN TEMP:  89; 6HR MAX TEMP: 101;

$$

AZZ503-504-507>509-241900-
SOUTHEAST ARIZONA

CITY           SKY/WX    TMP DP  RH WIND       PRES   REMARKS
TUCSON         MOSUNNY   94  60  32 N7        30.05F
6HR MIN TEMP:  82; 6HR MAX TEMP:  95;

DAVIS-MONTHAN  MOSUNNY   92  60  34 NW10      30.03F
6HR MIN TEMP:  80; 6HR MAX TEMP:  92;

RYAN FIELD     SUNNY     91  61  35 NW9       30.04F
NOGALES        SUNNY     88  56  33 CALM      30.14F
6HR MIN TEMP:  71; 6HR MAX TEMP:  88; 6HR PCP: TRACE;

SIERRA VISTA   SUNNY     89  58  35 NE8       30.18F
6HR MIN TEMP:  71; 6HR MAX TEMP:  89;

DOUGLAS        SUNNY     87  62  43 W7        30.12F
6HR MIN TEMP:  70; 6HR MAX TEMP:  87;

SAFFORD        SUNNY     95  56  26 NW23G30   30.01S
6HR MIN TEMP:  77; 6HR MAX TEMP:  95;

$$

AZZ020-021-025-026-031-241900-
SOUTHWEST ARIZONA

CITY           SKY/WX    TMP DP  RH WIND       PRES   REMARKS
YUMA           MOSUNNY  101  63  28 S22       29.85F HX 103
6HR MIN TEMP:  86; 6HR MAX TEMP: 101;

$$

CAZ031-033-041-043-047-048-061-241900-
SOUTHERN CALIFORNIA

CITY           SKY/WX    TMP DP  RH WIND       PRES   REMARKS
DOWNTOWN L.A.  SUNNY     83  66  56 VRB5      29.92R
6HR MIN TEMP:  69; 6HR MAX TEMP:  84;

L.A. AIRPORT   MOSUNNY   81  64  56 SE7       29.93R
6HR MIN TEMP:  67; 6HR MAX TEMP:  82;

SAN DIEGO      MOSUNNY   70  63  78 S14       29.95R
6HR MIN TEMP:  64; 6HR MAX TEMP:  70;

BURBANK        SUNNY     85  58  39 S12       29.93R
6HR MIN TEMP:  67; 6HR MAX TEMP:  86;

ONTARIO        MOSUNNY   90  54  29 W9        29.93R
6HR MIN TEMP:  72; 6HR MAX TEMP:  90;

RIVERSIDE      SUNNY     90  55  30 VRB7      29.93R
6HR MIN TEMP:  71; 6HR MAX TEMP:  91;

PALM SPRINGS   MOSUNNY   94  73  50 E8        29.91S HX 103
6HR MIN TEMP:  86; 6HR MAX TEMP:  94;

EL CENTRO NAS  SUNNY     98  67  36 SW5       29.83F HX 102
6HR MIN TEMP:  82; 6HR MAX TEMP:  99; 6HR PCP: TRACE;

IMPERIAL       CLOUDY   100  68  35 VRB6      29.81F HX 105
6HR MIN TEMP:  86; 6HR MAX TEMP: 101;

BLYTHE         CLOUDY    98  69  38 S16G24    29.87F HX 104
6HR MIN TEMP:  88; 6HR MAX TEMP:  99;

NEEDLES        MOSUNNY  102  57  22 SW22G30   29.88S HX 101
6HR MIN TEMP:  94; 6HR MAX TEMP: 103;

$$

NVZ020-UTZ003-241900-
SOUTHERN NEVADA-UTAH

CITY           SKY/WX    TMP DP  RH WIND       PRES   REMARKS
LAS VEGAS      SUNNY    104  43  12 SE8       29.85F
6HR MIN TEMP:  88; 6HR MAX TEMP: 104;

SALT LAKE CITY MOSUNNY   87  33  14 NW8       30.11F
6HR MIN TEMP:  64; 6HR MAX TEMP:  87;

$$

NMZ009-TXZ055-241900-
NEW MEXICO-WEST TEXAS

CITY           SKY/WX    TMP DP  RH WIND       PRES   REMARKS
ALBUQUERQUE    MOSUNNY   92  47  21 NE5       30.17F
6HR MIN TEMP:  76; 6HR MAX TEMP:  92;

EL PASO        MOSUNNY   95  47  19 W3        30.01F
6HR MIN TEMP:  78; 6HR MAX TEMP:  95;

$$


........................KEY........................
SKY/WX - SKY CONDITION/WEATHER
TMP    - TEMPERATURE IN FAHRENHEIT
DP     - DEW POINT IN FAHRENHEIT
RH     - RELATIVE HUMIDITY IN PERCENT
WIND   - DIRECTION AND SPEED IN MILES PER HOUR (MPH)
VRB    - VARIABLE WIND DIRECTION
PRES   - MEAN SEA LEVEL PRESSURE IN INCHES OF MERCURY
         F - FALLING PRESSURE   R - RISING PRESSURE
         S - STEADY PRESSURE
VSB    - VISIBILITY IN MILES
HX     - HEAT INDEX IN FAHRENHEIT
WCI    - WIND CHILL INDEX IN FAHRENHEIT
TC     - TEMPERATURE IN CELSIUS WHICH IS ALSO KNOWN AS
         TEMPERATURE IN CENTIGRADE
AFB    - AIR FORCE BASE
         LUKE AFB IS LUKE AIR FORCE BASE
         DAVIS-MONTHAN IS DAVIS-MONTHAN AIR FORCE BASE
NAS    - NAVAL AIR STATION
         EL CENTRO NAS IS EL CENTRO NAVAL AIR STATION
N/A    - NOT AVAILABLE





USA.gov is the U.S. government's official web portal to all federal, state and local government web resources and services.